User: anonymous   Login
Location: Poughquag
(41.6090°N, 73.6820°W)
Time: 02:38:24
(UTC-05:00)
Language:

Transit 2A Rocket - Orbit

View from above orbital plane
View from above orbital plane
View from above satellite
View from above satellite

Ground track
Ground track

The orbit data is extracted from the following two-line orbital elements,

1    47U 60007C   20047.77682160 -.00000077  00000-0  78852-5 0  9994
2    47  66.6659 120.3701 0224106  30.5988 330.7967 14.42071957117580
Epoch (UTC): 16 February 2020 18:38:37
Eccentricity: 0.0224106
inclination: 66.6659°
perigee height: 592 km
apogee height: 911 km
right ascension of ascending node: 120.3701°
argument of perigee: 30.5988°
revolutions per day: 14.42071957
mean anomaly at epoch: 330.7967°
orbit number at epoch: 11758

The dashed part of the orbit path shows where the satellite is in the earth's shadow,  

DLR